CZ-6A DEB, 55546

Orbit data source: Space-Track

CZ-6A DEB, 55546 is space debris in SSO originally from a launch on Fri, 11 Nov 2022 UTC launched from the Taiyaun Space Center, China (TSC). Debris objects in space refer to the collection of defunct objects orbiting the Earth. Examples of debris include non-operational satellites, rocket bodies, and fragments generated from explosions, collisions, or faulty payload assembly.

Loading next visibility...
Identifier
55546, 2022-151YU
Orbit
SSO
Country
Flag of CNCN / PRC
Related business
Manufacturer
SAST
Mission
Spacecraft
Bus & Motor
Unknown
Mass
Unknown
Launch date (UTC)
2022-11-11 (4 years ago)
Launch vehicle
Unknown
Launch site
Taiyaun Space Center, China (TSC)
Object type
Payload
Rocket body
Debris
Shape & HBR
Unknown shape, 0.1 m
Radar Cross Section
Small (<0.1 m²)

Expand to show TLE details & history
Last TLE update: 2 days ago

TLE from 2 days ago
0 CZ-6A DEB
1 55546U 22151YU  26171.08653278  .00000787  00000-0  20501-3 0  9995
2 55546  98.6047 224.3250 0129850 307.3551  51.5870 14.47706052189424
Epoch: 2026-06-20T02:04Z
TLE epoch observation values (Epoch: 2026-06-20T02:04:36.432Z)
Latitude
-0.00001°
Longitude
-75.133°
Altitude
679.468 km
Speed
7.547 km/s
True Right ascension
14h 57m 18s
True Declination
0° 00' 00"
Sunlit
Object was in full shadow at epoch
Visualization orbit readout
Latitude
Unknown
Longitude
Unknown
Altitude
Unknown
Speed
Unknown
Apparent Right ascension
Unknown
Apparent Declination
Unknown
Sunlit
N/A
Visualization observer readout
Local Sidereal Time
21:29:14
Azimuth
Unknown
Elevation
Unknown
Doppler factor
Unknown
Orbital elements
Apogee altitude
822.569 km
Perigee altitude
637.964 km
Semi-major axis
7,108.404 km
Eccentricity
0.01299
Inclination
98.6047°
RAAN
224.325°
Arg. of periapsis
307.3551°
True anomaly
52.76469°
Mean anomaly
51.587°
Eccentric anomaly
52.17466°
Mean motion
3.62147 °/min
Orbital period
99.41 mins
BSTAR
0.00020501
Loading maneuver chart data...
Computing Atmospheric mass density...
Loading historical data...
Loading historical data...
Loading historical data...
Loading historical data...
Loading historical data...
Loading historical data...
Loading historical data...

Documentation

Showing up to 5 results
|